This demonstration page uses our WeatherBlox Daily Observations layout. Learn more.

Left ArrowRight Arrow

38.20091, -84.87328

Hourly Observations for April 26, 2020

Temp ( °F °C ) Dew Point ( °F °C ) Humidity (%) Winds ( mph kmh ) Pressure ( in mb ) Visibility ( mi km ) Precip ( " mm )
12:53 am 00:53 Cloudy with Light Rain 55 12.8 53 11.7 93 93 Calm 29.67 1005 6 10 0.03 0.76
1:53 am 01:53 Cloudy with Light Rain 55 12.8 53 11.7 93 93 Calm 29.68 1005 6 10 0.04 1.02
2:40 am 02:40 Cloudy 55 12.8 53 11.7 93 93 WSW 6 9 29.69 1005 10 16 0.01 0.25
2:49 am 02:49 Cloudy with Light Rain 55 13 54 12 94 94 WSW 6 9 29.68 1005 10 16 0.02 0.51
2:53 am 02:53 Cloudy with Light Rain 55 12.8 53 11.7 93 93 SW 6 9 29.67 1005 10 16 0.02 0.51
3:23 am 03:23 Cloudy 55 12.8 53 11.7 93 93 WSW 3 6 29.67 1005 10 16 0.00 0.00
3:53 am 03:53 Cloudy 55 12.8 53 11.7 93 93 SW 6 9 29.67 1005 10 16 0.00 0.00
4:53 am 04:53 Cloudy with Light Rain 56 13.3 53 11.7 90 90 WSW 7 11 29.67 1005 8 13 0.00 0.00
5:40 am 05:40 Cloudy with Rain 56 13.3 53 11.7 90 90 W 6 9 29.69 1005 3 4 0.06 1.52
5:51 am 05:51 Cloudy with Heavy Rain 55 13 54 12 94 94 WSW 10 17 29.70 1006 1 2 0.17 4.32
5:53 am 05:53 Cloudy with Heavy Rain 55 12.8 53 11.7 93 93 SW 15 24 29.69 1005 1 2 0.19 4.83
6:02 am 06:02 Cloudy with Rain 54 12.2 52 11.1 93 93 WNW 5 7 29.70 1006 3 5 0.03 0.76
6:19 am 06:19 Cloudy with Light Rain 53 11.7 50 10 89 89 WNW 5 7 29.71 1006 4 6 0.06 1.52
6:53 am 06:53 Cloudy with Light Rain 51 10.6 49 9.4 92 92 WNW 9 15 29.72 1007 8 13 0.09 2.29
7:10 am 07:10 Cloudy with Light Rain 51 10.6 48 8.9 89 89 WNW 9 15 29.75 1007 3 4 0.02 0.51
7:26 am 07:26 Cloudy with Light Rain 50 10 48 8.9 93 93 WNW 7 11 29.76 1008 2 3 0.03 0.76
7:44 am 07:44 Cloudy with Light Rain 50 10 48 8.9 93 93 WNW 5 7 29.76 1008 2 3 0.05 1.27
7:53 am 07:53 Cloudy with Light Rain 50 10 48 8.9 93 93 W 5 7 29.75 1008 4 6 0.05 1.27
8:03 am 08:03 Cloudy with Light Rain 50 10 48 8.9 93 93 WNW 8 13 29.77 1008 4 6 0.00 0.00
8:17 am 08:17 Cloudy with Mist and Fog 50 10 46 7.8 86 86 NW 10 17 29.78 1008 6 10 0.01 0.25
8:30 am 08:30 Cloudy with Light Rain 49 9.4 46 7.8 90 90 NW 9 15 29.79 1009 6 10 0.01 0.25
8:41 am 08:41 Cloudy with Light Rain 49 9.4 46 7.8 90 90 NW 8 13 29.79 1009 4 6 0.02 0.51
8:53 am 08:53 Cloudy with Light Rain 49 9.4 47 8.3 93 93 NNW 6 9 29.78 1008 4 6 0.04 1.02
9:01 am 09:01 Cloudy with Light Rain 49 9.4 46 7.8 90 90 NW 6 9 29.80 1009 6 10 0.00 0.00
9:53 am 09:53 Cloudy with Mist and Fog 48 8.9 45 7.2 89 89 NNW 10 17 29.80 1009 5 8 0.00 0.00
10:05 am 10:05 Cloudy with Mist and Fog 48 8.9 45 7.2 89 89 NNW 10 17 29.82 1010 3 4 0.00 0.00
10:12 am 10:12 Cloudy with Light Rain 48 8.9 45 7.2 89 89 NNW 10 17 29.82 1010 2 3 0.00 0.00
10:21 am 10:21 Cloudy with Light Rain 48 8.9 45 7.2 89 89 NNW 10 17 29.82 1010 3 4 0.01 0.25
10:30 am 10:30 Cloudy with Light Rain 48 8.9 46 7.8 93 93 NW 5 7 29.83 1010 3 4 0.01 0.25
10:35 am 10:35 Cloudy with Light Rain 48 8.9 45 7.2 89 89 NW 9 15 29.83 1010 4 6 0.01 0.25
10:40 am 10:40 Cloudy with Light Rain 48 8.9 45 7.2 89 89 WNW 9 15 29.83 1010 3 4 0.02 0.51
10:48 am 10:48 Cloudy with Light Rain 48 9 45 7 87 87 NW 8 13 29.83 1010 3 5 0.02 0.51
10:53 am 10:53 Cloudy with Light Rain 48 8.9 45 7.2 89 89 WNW 8 13 29.82 1010 3 5 0.02 0.51
10:59 am 10:59 Cloudy with Light Rain 48 8.9 45 7.2 89 89 NNW 9 15 29.84 1011 3 4 0.01 0.25
11:11 am 11:11 Cloudy with Light Rain 47 8.3 44 6.7 90 90 NW 14 22 29.85 1011 3 4 0.02 0.51
11:15 am 11:15 Cloudy with Light Rain 47 8.3 44 6.7 90 90 NW 10 17 29.85 1011 3 5 0.02 0.51
11:35 am 11:35 Cloudy with Light Rain 47 8.3 44 6.7 90 90 WNW 8 13 29.87 1011 4 6 0.03 0.76
11:53 am 11:53 Cloudy with Light Rain 47 8.3 44 6.7 90 90 NW 9 15 29.85 1011 5 8 0.04 1.02
12:06 pm 12:06 Cloudy with Light Rain 47 8.3 43 6.1 86 86 WNW 9 15 29.88 1012 6 10 0.00 0.00
12:53 pm 12:53 Cloudy 47 8.3 43 6.1 86 86 WNW 9 15 29.87 1012 7 11 0.01 0.25
1:53 pm 13:53 Cloudy 47 8.3 43 6.1 86 86 WNW 8 13 29.88 1012 10 16 0.00 0.00
2:14 pm 14:14 Cloudy with Light Rain 47 8.3 43 6.1 86 86 NW 10 17 29.91 1013 7 11 0.00 0.00
2:34 pm 14:34 Cloudy 47 8.3 43 6.1 86 86 WNW 9 15 29.92 1013 8 13 0.00 0.00
2:43 pm 14:43 Cloudy with Mist and Fog 47 8.3 44 6.7 90 90 WNW 6 9 29.92 1013 6 10 0.00 0.00
2:53 pm 14:53 Cloudy 47 8.3 43 6.1 86 86 WNW 7 11 29.90 1013 10 16 0.00 0.00
3:04 pm 15:04 Cloudy 48 8.9 44 6.7 86 86 WNW 8 13 29.92 1013 10 16 0.00 0.00
3:53 pm 15:53 Cloudy 50 10 45 7.2 83 83 W 8 13 29.92 1013 10 16 0.00 0.00
4:53 pm 16:53 Cloudy with Light Rain 53 11.7 47 8.3 80 80 NW 8 13 29.95 1014 10 16 0.02 0.51
5:53 pm 17:53 Cloudy 53 11.7 46 7.8 77 77 NW 5 7 29.99 1016 10 16 0.01 0.25
6:53 pm 18:53 Cloudy 53 11.7 46 7.8 77 77 Calm 30.02 1017 10 16 0.00 0.00
7:53 pm 19:53 Cloudy 54 12.2 45 7.2 72 72 VRB 3 6 30.04 1017 10 16 0.00 0.00
8:53 pm 20:53 Mostly Clear 48 8.9 44 6.7 86 86 E 5 7 30.08 1019 10 16 0.00 0.00
9:31 pm 21:31 Clear with Mist and Fog 46 7.8 43 6.1 89 89 Calm 30.11 1020 2 2 0.00 0.00
9:41 pm 21:41 Clear with Mist and Fog 46 7.8 43 6.1 89 89 Calm 30.11 1020 3 5 0.00 0.00
9:53 pm 21:53 Clear 46 7.8 42 5.6 86 86 Calm 30.10 1019 7 11 0.00 0.00
10:11 pm 22:11 Clear with Mist and Fog 43 6.1 41 5 93 93 Calm 30.13 1020 3 4 0.00 0.00
10:20 pm 22:20 Clear 45 7.2 42 5.6 90 90 Calm 30.13 1020 7 11 0.00 0.00
10:53 pm 22:53 Clear with Mist and Fog 45 7.2 42 5.6 90 90 Calm 30.12 1020 3 5 0.00 0.00
11:02 pm 23:02 Clear with Mist and Fog 44 6.7 42 5.6 93 93 Calm 30.14 1021 1 2 0.00 0.00
11:04 pm 23:04 Mostly Cloudy with Fog 43 6.1 41 5 93 93 Calm 30.14 1021 1 1 0.00 0.00
11:34 pm 23:34 Clear with Mist and Fog 42 5.6 40 4.4 92 92 WSW 5 7 30.14 1021 1 2 0.00 0.00
11:38 pm 23:38 Clear with Mist and Fog 43 6.1 41 5 93 93 SW 5 7 30.14 1021 2 3 0.00 0.00
11:53 pm 23:53 Clear with Mist and Fog 42 5.6 40 4.4 92 92 SW 5 7 30.13 1020 1 2 0.00 0.00

Powered by AerisWeather